Theta_e
323 323 324 324 325 325 326 326 326 327 327 327 326 327 327 327 324 315 310 315 318 327 324 314 313 313 315 313 313 312 303 302 302 301 303 306 304 306 306 306 305 307 307 306 309
320 321 322 323 323 324 325 325 325 326 326 326 325 326 326 326 317 312 321 324 326 327 314 311 310 312 311 310 310 308 304 304 306 306 304 305 305 306 302 303 304 305 307 303 306
318 318 320 321 322 323 324 324 325 325 326 326 325 326 325 323 311 312 325 326 326 323 314 312 312 311 309 310 309 307 303 306 306 306 305 305 304 307 303 303 307 306 307 304 304
317 317 317 318 320 322 323 323 324 325 325 325 325 325 324 318 302 312 325 324 325 318 312 310 310 307 307 306 309 303 307 306 306 305 304 303 306 303 304 306 308 310 311 306 303
316 316 316 316 318 320 321 322 323 324 324 324 324 325 319 310 309 314 319 318 315 312 310 309 309 310 306 307 306 304 306 305 306 305 304 305 303 304 305 309 310 307 305 306 304
316 315 315 316 317 318 320 321 322 323 323 323 324 323 314 303 314 314 311 310 311 311 309 310 309 310 307 305 305 305 304 305 306 305 305 302 303 302 306 309 308 308 304 305 305
316 315 315 315 316 317 318 319 321 322 322 322 324 319 310 306 314 313 311 310 310 310 308 310 311 308 309 305 306 304 300 304 305 304 302 303 299 301 306 305 305 306 305 305 305
315 315 315 315 316 316 317 319 320 321 322 324 324 316 306 313 316 310 311 309 310 310 310 310 310 309 306 306 303 301 302 297 304 303 302 302 297 305 308 305 303 305 306 304 305
315 314 315 316 316 316 317 319 319 321 322 323 317 313 304 312 310 312 311 307 309 309 309 308 310 307 304 301 300 302 296 298 301 303 301 300 298 304 306 304 303 305 306 306 305
314 315 315 315 315 316 317 319 319 318 319 316 312 307 307 305 310 310 309 309 307 308 306 306 306 302 302 300 293 297 296 298 298 301 300 298 297 302 305 304 304 304 304 305 306
316 315 314 315 316 316 316 313 308 307 309 306 307 306 304 309 311 307 307 306 307 305 300 304 299 297 300 302 301 300 297 296 299 302 298 298 298 301 304 304 303 304 304 305 306
316 316 316 316 316 316 314 305 308 306 298 305 305 305 307 310 304 306 307 302 301 298 302 299 295 301 302 301 300 299 296 296 300 302 296 297 296 300 302 302 303 303 303 304 306
316 316 316 316 316 314 308 307 312 311 300 301 305 303 304 306 302 304 304 303 300 298 299 296 299 300 299 299 296 296 295 296 296 300 296 294 293 297 300 301 302 302 303 304 304
317 316 315 315 312 312 307 309 312 309 293 296 297 302 304 305 298 304 305 303 300 297 298 298 301 299 297 295 297 293 299 298 296 294 290 295 287 296 298 299 299 299 301 304 303
316 316 316 313 311 309 307 310 311 305 284 296 296 305 304 299 299 298 301 300 297 297 298 296 298 295 294 296 299 295 295 295 295 293 293 292 289 293 293 293 294 297 302 305 305
316 316 314 312 313 311 310 309 306 291 284 292 297 296 297 298 297 297 298 300 300 297 297 296 297 297 298 293 295 295 293 292 292 291 285 292 291 291 294 294 297 300 301 304 302
316 315 313 314 309 311 309 305 290 284 294 293 294 296 296 296 296 295 293 293 292 289 291 296 295 297 296 293 293 293 292 288 287 286 285 294 290 293 298 297 298 299 301 302 301
316 315 313 314 315 313 307 296 284 291 293 296 295 295 293 297 296 295 294 292 295 295 292 291 289 295 295 296 296 291 293 289 283 284 287 289 286 292 299 300 300 300 300 300 299
316 314 311 312 312 311 298 287 290 294 296 295 295 291 292 295 295 295 294 294 297 295 290 290 290 292 295 294 297 292 287 295 290 288 285 289 293 299 298 297 298 297 297 298 298
314 310 309 313 308 304 292 290 297 299 298 295 290 293 290 293 291 292 294 297 296 299 299 295 288 294 288 291 292 291 293 287 289 283 281 287 290 291 293 294 296 295 296 298 299
312 303 313 311 307 297 285 288 297 301 298 291 291 291 293 292 294 292 292 297 298 298 298 296 292 290 288 287 290 287 287 287 287 289 284 283 287 295 294 296 296 296 297 298 300
308 297 308 308 294 292 287 292 297 298 297 293 292 291 291 293 292 292 292 295 299 298 292 295 292 287 290 295 293 294 292 291 285 284 287 286 286 296 296 297 297 297 298 301 301
303 301 306 307 292 289 292 294 296 297 298 295 291 292 293 289 286 290 293 297 296 296 294 293 287 284 286 290 287 287 290 291 292 290 285 283 286 297 298 298 297 297 298 299 298
303 294 295 297 300 296 290 292 292 299 297 297 291 293 290 288 290 287 290 295 297 293 295 296 289 286 282 287 291 287 288 290 289 285 285 286 288 293 295 296 298 299 300 300 299
300 297 295 287 290 294 295 293 292 291 297 297 293 291 289 287 289 287 290 292 294 292 293 292 284 288 289 290 291 288 289 290 287 287 284 287 289 293 295 296 298 299 298 298 298
292 295 295 295 296 292 292 291 291 294 296 294 292 293 293 289 292 291 293 291 291 291 290 291 284 287 284 288 288 286 288 289 289 290 290 289 288 295 296 297 296 297 297 297 297
298 296 289 288 290 291 292 292 292 295 297 299 298 294 293 292 296 297 298 298 296 290 287 286 285 284 280 287 286 281 286 288 289 292 291 287 292 296 296 296 296 298 298 297 298
Wind_Speed
16 17 17 18 18 18 18 18 17 15 13 12 12 9 7 8 2 6 8 3 5 5 2 2 5 6 6 4 4 2 6 8 5 5 1 5 10 4 4 7 4 8 7 5 14
16 17 17 18 18 18 17 17 17 16 14 13 13 10 7 6 9 13 6 9 8 7 5 8 5 7 6 3 4 6 7 6 2 4 5 6 10 8 6 11 14 13 11 5 18
15 16 17 18 18 18 18 17 16 16 15 13 12 10 7 6 7 4 8 8 7 8 4 3 5 8 8 4 7 4 6 4 6 6 5 7 9 8 9 15 14 16 16 15 18
14 16 17 17 18 18 19 18 17 16 17 15 12 10 8 6 6 4 6 4 4 5 6 5 6 5 6 8 5 6 11 8 2 3 4 9 5 8 17 19 3 5 9 19 20
14 15 17 18 19 19 19 19 18 16 16 16 12 8 4 7 9 7 6 5 6 4 7 7 9 7 8 4 4 9 9 6 8 6 9 6 13 12 17 17 16 7 5 15 18
13 14 16 17 19 21 21 20 20 18 16 16 11 4 7 12 5 6 6 6 4 7 4 5 5 3 8 6 8 5 9 12 8 12 9 9 14 3 12 13 19 16 15 16 19
13 14 15 17 18 21 22 23 21 19 19 14 7 5 8 13 2 4 6 3 2 3 5 2 2 5 1 6 2 5 9 13 15 12 7 7 11 19 21 8 11 14 16 17 19
14 14 15 16 17 20 22 23 23 21 13 8 6 5 9 2 3 4 7 4 4 3 1 3 3 2 4 2 5 6 6 11 1 10 5 9 19 12 11 10 14 17 16 17 20
14 14 13 14 16 18 20 25 22 11 2 3 5 7 7 4 5 6 5 4 6 4 3 3 3 4 3 7 12 10 12 15 16 14 5 14 15 8 3 9 16 18 18 18 19
14 12 13 15 18 20 22 22 5 6 4 4 3 5 7 3 5 5 3 7 3 7 5 6 6 8 9 10 13 16 18 17 16 10 14 14 21 21 19 19 21 22 22 21 20
9 11 16 16 18 21 15 4 6 6 6 7 1 6 1 4 2 5 5 8 5 7 9 7 9 17 18 19 22 22 21 23 24 9 10 19 22 22 21 21 23 23 22 20 20
8 9 11 13 16 21 11 4 3 2 10 11 14 9 6 3 4 9 8 11 9 15 15 6 17 21 18 11 15 19 21 26 22 11 7 16 23 20 22 25 24 23 22 18 16
10 9 9 12 16 12 6 2 2 1 8 8 8 8 6 12 11 12 16 9 12 16 19 23 19 3 6 15 15 19 21 21 21 14 13 14 20 17 15 16 18 20 19 16 15
11 10 8 11 6 9 4 5 2 2 8 11 9 4 5 4 8 3 11 8 10 13 19 20 19 20 18 21 18 20 14 19 20 11 15 2 17 14 14 16 13 19 17 15 11
11 11 4 3 6 3 6 8 7 5 14 4 5 3 3 8 4 4 1 4 17 11 6 11 8 8 14 19 12 11 3 5 9 14 18 15 17 14 7 9 12 18 18 12 8
12 10 5 3 4 1 2 5 4 9 14 6 7 7 6 7 2 3 5 4 3 11 12 19 2 4 5 3 3 6 3 4 5 6 14 19 20 7 7 7 7 12 13 7 7
15 13 9 3 2 3 3 3 7 14 3 7 8 8 10 11 9 11 8 12 11 8 12 14 23 6 4 6 5 9 7 7 10 8 19 13 14 16 9 11 14 21 17 6 9
18 14 11 10 6 6 3 6 18 9 23 2 1 6 10 12 9 11 8 10 18 15 5 9 11 19 15 19 8 15 12 7 14 15 25 4 15 11 15 15 14 13 5 6 10
17 5 5 9 8 8 6 12 20 15 17 14 6 11 13 9 7 12 15 14 12 22 15 10 13 4 11 3 8 10 9 4 10 1 10 14 25 18 7 11 12 8 6 11 12
5 4 8 13 13 4 7 26 22 16 15 6 25 15 23 23 12 11 14 12 12 17 20 9 14 8 7 3 5 6 2 6 6 7 18 31 24 18 12 16 11 6 10 11 9
5 4 5 15 8 4 7 16 16 18 22 10 18 26 24 22 23 24 19 19 13 9 15 10 8 9 7 13 15 8 8 7 5 10 14 22 13 6 10 8 6 7 8 9 9
3 5 9 13 8 5 12 13 9 22 11 9 9 17 25 23 26 25 27 23 7 5 10 9 4 11 22 13 8 14 20 21 13 17 10 16 32 2 8 8 4 7 6 6 6
4 2 6 8 10 10 12 23 13 17 18 11 15 12 12 15 16 21 22 19 14 10 8 8 4 7 10 11 5 9 14 15 19 14 27 18 31 10 23 16 7 10 10 9 10
5 5 3 4 5 14 19 21 23 19 21 19 7 9 13 15 19 11 15 16 10 4 11 1 8 14 20 25 7 13 19 19 21 19 24 27 29 38 27 24 26 24 20 16 15
4 7 8 7 11 16 11 10 25 19 20 13 8 21 17 12 17 16 26 31 24 6 3 2 13 20 29 34 34 28 19 14 24 25 23 29 24 27 31 28 26 23 22 24 24
5 6 4 8 16 25 25 20 25 26 24 22 23 25 27 23 24 24 22 16 19 3 13 10 8 16 24 28 32 32 27 30 37 31 27 28 30 33 38 34 31 35 31 23 25
2 3 1 3 6 14 20 29 29 28 28 31 30 25 24 28 33 33 24 22 10 9 10 7 7 10 19 25 26 22 39 39 37 40 30 31 38 40 38 33 30 32 24 21 22
Wind_Direction
19 16 12 9 7 4 0 0 358 357 353 349 349 336 325 317 301 204 240 131 133 131 212 161 218 210 208 207 230 255 256 262 271 258 3 140 210 176 4 241 205 196 266 59 145
14 11 8 4 2 359 355 351 347 345 345 344 342 335 322 315 267 256 142 137 139 164 196 204 210 190 222 228 214 241 257 290 343 273 265 187 229 199 216 215 228 230 219 162 157
7 4 1 360 355 352 348 345 339 335 333 335 337 330 316 291 272 247 123 144 156 183 230 238 254 205 241 234 195 189 252 358 258 251 261 247 230 215 225 245 224 234 222 185 185
2 358 355 351 348 346 343 340 334 329 326 326 332 324 318 231 270 91 115 120 166 198 190 191 205 216 243 224 192 256 242 251 319 233 242 239 269 230 228 239 68 294 258 173 198
354 352 349 345 341 339 336 334 330 325 320 317 320 314 267 237 255 128 126 129 157 180 230 226 236 253 252 238 225 246 278 253 244 223 239 259 244 250 257 246 257 211 219 196 205
343 344 342 340 337 334 331 328 325 319 311 307 302 289 246 254 98 138 141 148 214 218 219 233 295 299 292 260 232 359 282 269 254 245 235 232 255 239 251 249 242 229 225 222 213
334 335 337 335 333 331 326 321 319 314 309 300 268 228 241 254 77 143 158 162 172 239 230 220 266 244 5 256 270 283 281 271 245 241 243 209 248 236 251 221 230 234 231 227 224
324 327 329 329 329 327 322 315 313 308 301 285 200 216 259 87 135 171 166 132 134 127 177 149 213 242 243 33 236 258 252 270 210 179 190 199 267 243 236 189 231 243 237 232 227
316 319 323 326 325 321 317 310 305 296 276 171 206 240 256 138 192 169 206 190 138 121 94 141 229 265 193 240 265 205 268 271 266 189 154 209 265 288 169 232 255 257 252 234 232
311 314 321 326 323 322 319 300 286 277 218 217 262 236 180 201 134 156 143 181 170 150 164 201 223 241 221 231 251 282 287 274 262 188 215 230 249 271 274 262 269 262 263 257 241
292 309 319 320 320 322 329 325 238 206 206 235 280 272 173 85 159 183 158 167 178 216 218 196 224 233 246 234 249 275 283 277 272 264 218 242 257 265 272 273 272 270 270 256 252
272 287 304 309 315 316 291 279 69 15 290 244 256 263 230 189 233 192 174 187 192 221 216 208 235 251 274 284 268 262 265 267 272 277 208 269 269 268 265 266 272 273 269 268 263
270 270 298 310 318 298 309 18 350 270 252 221 219 242 236 186 231 211 185 202 213 231 225 238 254 121 265 255 252 248 251 260 266 282 222 273 273 259 249 256 260 265 260 268 255
263 274 288 311 286 350 296 355 306 267 262 226 200 181 166 206 253 114 208 218 207 245 236 252 261 260 257 254 255 263 268 253 269 277 270 90 286 275 289 261 240 269 274 261 221
239 261 278 344 314 304 355 331 312 259 274 110 158 73 142 212 60 164 139 196 237 211 195 230 216 220 234 244 242 241 334 263 261 259 278 259 267 274 178 260 241 246 261 266 191
229 231 163 194 251 249 350 319 267 246 251 189 154 181 172 201 190 110 188 231 330 242 237 259 87 234 237 102 241 119 240 234 227 258 253 254 245 276 216 208 232 251 248 261 183
220 206 180 198 313 113 144 192 252 232 44 195 214 189 210 196 199 193 177 191 192 185 218 220 226 187 187 209 171 204 218 269 250 223 264 270 258 258 256 227 242 260 264 141 174
216 198 206 217 166 161 208 188 241 223 225 111 292 216 214 183 225 200 199 224 229 239 278 240 241 192 196 221 236 198 215 219 271 268 283 103 262 262 234 237 240 248 229 188 193
225 209 201 196 180 176 193 216 238 233 247 251 216 245 226 226 248 202 217 223 213 200 214 205 246 131 179 186 194 161 204 272 273 178 275 263 266 264 168 198 226 227 219 228 208
235 217 217 178 154 186 221 236 244 226 274 273 236 223 244 235 203 202 221 232 237 196 228 249 261 180 129 181 219 241 51 196 194 264 262 281 280 275 238 227 215 236 238 250 212
245 239 176 144 122 154 210 241 274 267 268 250 251 260 255 250 250 231 241 253 219 208 210 233 222 226 136 198 211 184 224 220 301 235 252 275 279 89 98 96 159 223 237 243 216
211 234 153 151 174 176 211 211 222 267 266 262 274 259 270 267 259 249 249 247 216 185 202 219 270 228 234 239 270 258 235 218 221 231 230 249 273 118 112 113 190 218 221 239 217
247 218 183 195 215 208 232 237 237 245 246 230 231 230 283 289 295 285 274 273 280 200 213 174 223 250 256 241 166 210 228 242 239 251 246 243 256 192 263 270 242 220 216 220 219
275 242 189 260 226 226 221 229 231 239 241 243 209 268 256 256 257 263 275 286 276 324 20 280 208 235 241 248 251 212 222 223 224 234 248 243 260 275 272 278 279 278 271 256 242
242 246 184 198 237 233 225 222 237 232 222 210 215 211 206 227 240 234 241 256 262 148 212 268 253 247 244 255 263 267 262 239 233 240 243 260 257 264 279 266 275 282 282 282 278
293 307 316 291 220 212 223 222 233 240 233 221 226 218 217 221 222 247 237 227 234 214 246 215 243 239 244 249 258 260 260 260 262 257 251 249 263 262 259 273 272 274 278 278 277
353 345 2 291 301 265 227 227 236 239 240 238 242 236 236 219 226 237 248 254 213 190 196 204 202 223 244 237 242 250 239 243 250 255 251 248 246 257 266 256 255 268 279 277 281